Location: Gleizolles
(44.4833°N, 6.7667°E)
Time: 16:59:58
(UTC+00:00)

Tiros 1 - Pass Details

Date: 04 July 2024
Orbit: 624 x 656 km, 48.4° (Epoch: 13 July)

Event Time Altitude Azimuth Distance (km) Brightness Sun altitude
Rises 21:03:10 0° 271° (W) 2,904 11.1 -14.1°
Reaches altitude 10° 21:05:32 10° 276° (W) 1,996 10.3 -14.3°
Maximum altitude 21:10:01 53° 354° (N) 769 7.9 -14.8°
Drops below altitude 10° 21:14:31 10° 72° (ENE) 1,997 9.5 -15.2°
Sets 21:16:53 0° 77° (ENE) 2,907 10.3 -15.5°
